COSMOS 249 DEB, 18551

Orbit data source: Space-Track

COSMOS 249 DEB, 18551 is space debris in LEO originally from a launch on Sun, 20 Oct 1968 UTC launched from the Tyuratam Missile And Space Complex (TTMTR). Debris objects in space refer to the collection of defunct objects orbiting the Earth. Examples of debris include non-operational satellites, rocket bodies, and fragments generated from explosions, collisions, or faulty payload assembly.

Loading next visibility...
Identifier
18551, 1968-091DF
Orbit
LEO
Country
Flag of CISCIS
Related business
Manufacturer
Unknown
Mission
Spacecraft
Bus & Motor
Unknown
Mass
Unknown
Launch date (UTC)
1968-10-20 (57 years ago)
Launch vehicle
Unknown
Launch site
Tyuratam Missile And Space Complex (TTMTR)
Object type
Payload
Rocket body
Debris
Shape & HBR
Unknown shape, 0.1 m
Radar Cross Section
Small (<0.1 m²)

Expand to show TLE details & history
Last TLE update: 17 hours ago

TLE from 17 hours ago
0 COSMOS 249 DEB
1 18551U 68091DF  25340.73427241  .00001933  00000-0  81048-3 0  9998
2 18551  62.2920 291.9858 0718832 146.8064 296.8701 13.39012072620754
Epoch: 2025-12-06T17:37Z
TLE epoch observation values (Epoch: 2025-12-06T17:37:21.136Z)
Latitude
59.35046°
Longitude
13.72942°
Altitude
910.715 km
Speed
7.507 km/s
True Right ascension
23h 35m 18s
True Declination
59° 12' 09"
Sunlit
Object was in daylight at epoch
Visualization orbit readout
Latitude
Unknown
Longitude
Unknown
Altitude
Unknown
Speed
Unknown
Apparent Right ascension
Unknown
Apparent Declination
Unknown
Sunlit
N/A
Visualization observer readout
Local Sidereal Time
09:10:59
Azimuth
Unknown
Elevation
Unknown
Doppler factor
Unknown
Orbital elements
Apogee altitude
1,650.335 km
Perigee altitude
573.516 km
Semi-major axis
7,490.062 km
Eccentricity
0.07188
Inclination
62.292°
RAAN
291.9858°
Arg. of periapsis
146.8064°
True anomaly
289.23453°
Mean anomaly
296.8701°
Eccentric anomaly
293.08119°
Mean motion
3.34823 °/min
Orbital period
107.52 mins
BSTAR
0.00081048
Loading maneuver chart data...
Computing Atmospheric mass density...

Documentation

Showing up to 5 results
|